Weather History for West Palm Beach, FL

Change the Weather History Date:

Wednesday, March 12, 2014

  Actual Average Record
Temperature  
Mean Temperature 78 °F 70 °F  
Max Temperature 86 °F 78 °F 90 °F (1948)
Min Temperature 70 °F 62 °F 34 °F (1924)
Degree Days  
Heating Degree Days 0 1  
Month to date heating degree days 2 12  
Since 1 July heating degree days 117 217  
Cooling Degree Days 13 6  
Month to date cooling degree days 70 70  
Year to date cooling degree days 416 305  
Growing Degree Days 28 (Base 50)    
Moisture  
Dew Point 66 °F    
Average Humidity 71    
Maximum Humidity 90    
Minimum Humidity 51    
Precipitation  
Precipitation 0.18 in 0.15 in 4.99 in (2010)
Month to date precipitation 0.44 1.67  
Year to date precipitation 11.92 7.62  
Snow  
Snow 0.00 in - - ()
Month to date snowfall 0.0  
Since 1 July snowfall 0.0  
Snow Depth 0.00 in    
Sea Level Pressure  
Sea Level Pressure 29.83 in    
Wind  
Wind Speed 12 mph (SW)    
Max Wind Speed 25 mph    
Max Gust Speed 32 mph    
Visibility 10 miles    
Events Rain    
T = Trace of Precipitation, MM = Missing Value Source: NWS Daily Summary

Daily Weather History Graph

Daily Weather History Graph

Search for Another Location

Airport:

Trip Planner

Search our weather history database for the weather conditions in past years. The results will help you decide how hot, cold, wet, or windy it might be!

Date:

Astronomy

Mar. 12, 2014 Rise Set
Actual Time 7:32 AM EDT 7:27 PM EDT
Civil Twilight 7:09 AM EDT 7:50 PM EDT
Nautical Twilight 6:42 AM EDT 8:17 PM EDT
Astronomical Twilight 6:16 AM EDT 8:44 PM EDT
Moon 4:12 PM EDT (3/12) 4:46 AM EDT (3/12)
Length of Visible Light 12h 40m
Length of Day
11h 54m
Waxing Gibbous, 85% of the Moon is Illuminated
Mar 12
Waxing Gibbous
Mar 16
Full
Mar 23
Last Quarter
Mar 30
New
Apr 7
First Quarter

Hourly Weather History & Observations

Time (EDT) Temp. Heat Index Dew Point Humidity Pressure Visibility Wind Dir Wind Speed Gust Speed Precip Events Conditions
12:53 AM 72.0 °F - 64.9 °F 78% 29.88 in 10.0 mi South 5.8 mph - N/A   Clear
1:53 AM 71.1 °F - 64.9 °F 81% 29.88 in 10.0 mi South 6.9 mph - N/A   Clear
2:53 AM 71.1 °F - 64.9 °F 81% 29.86 in 10.0 mi SSW 6.9 mph - N/A   Clear
3:53 AM 70.0 °F - 64.9 °F 84% 29.85 in 10.0 mi South 8.1 mph - N/A   Partly Cloudy
4:53 AM 70.0 °F - 64.9 °F 84% 29.83 in 10.0 mi South 6.9 mph - N/A   Partly Cloudy
5:53 AM 70.0 °F - 66.0 °F 87% 29.82 in 10.0 mi South 9.2 mph - N/A   Scattered Clouds
6:53 AM 71.1 °F - 66.0 °F 84% 29.83 in 10.0 mi South 8.1 mph - N/A   Scattered Clouds
7:53 AM 71.1 °F - 66.9 °F 87% 29.85 in 10.0 mi South 6.9 mph - N/A   Mostly Cloudy
8:53 AM 73.9 °F - 68.0 °F 82% 29.85 in 10.0 mi South 8.1 mph - N/A   Mostly Cloudy
9:53 AM 77.0 °F - 69.1 °F 76% 29.87 in 10.0 mi SSW 15.0 mph - N/A   Mostly Cloudy
10:53 AM 80.1 °F 82.7 °F 68.0 °F 67% 29.87 in 10.0 mi SSW 16.1 mph - N/A   Scattered Clouds
11:53 AM 82.9 °F 84.6 °F 64.9 °F 54% 29.87 in 10.0 mi WSW 21.9 mph 26.5 mph N/A   Mostly Cloudy
12:53 PM 84.9 °F 86.1 °F 64.0 °F 49% 29.85 in 10.0 mi SW 20.7 mph 26.5 mph N/A   Mostly Cloudy
1:53 PM 75.0 °F - 66.9 °F 76% 29.83 in 6.0 mi NW 19.6 mph - 0.06 in Rain Heavy Rain
2:00 PM 73.0 °F - 68.0 °F 84% 29.81 in 8.0 mi WNW 8.1 mph - 0.04 in Rain Light Rain
2:53 PM 80.1 °F 82.9 °F 69.1 °F 69% 29.78 in 10.0 mi WSW 9.2 mph - 0.12 in   Mostly Cloudy
3:53 PM 84.0 °F 85.8 °F 64.9 °F 53% 29.76 in 10.0 mi WSW 13.8 mph 21.9 mph N/A   Scattered Clouds
4:53 PM 84.0 °F 85.4 °F 64.0 °F 51% 29.74 in 10.0 mi WSW 15.0 mph 24.2 mph N/A   Scattered Clouds
5:53 PM 82.0 °F 83.1 °F 63.0 °F 52% 29.76 in 10.0 mi West 13.8 mph 23.0 mph N/A   Overcast
6:53 PM 81.0 °F 81.9 °F 62.1 °F 52% 29.77 in 10.0 mi West 16.1 mph - N/A   Overcast
7:53 PM 75.0 °F - 64.0 °F 69% 29.80 in 10.0 mi West 11.5 mph - N/A   Mostly Cloudy
8:53 PM 73.9 °F - 63.0 °F 68% 29.82 in 10.0 mi West 9.2 mph - N/A   Mostly Cloudy
9:53 PM 75.0 °F - 64.9 °F 71% 29.85 in 10.0 mi West 10.4 mph - N/A   Mostly Cloudy
10:53 PM 73.9 °F - 66.0 °F 76% 29.86 in 10.0 mi WSW 10.4 mph - N/A   Mostly Cloudy
11:53 PM 73.9 °F - 66.9 °F 79% 29.86 in 10.0 mi West 10.4 mph - N/A   Mostly Cloudy